• In United Kingdom
  • List of Countries
  • For 7 days
  • Water Temperature
  • Satellite Maps
  • Weather Map
  • Weather Widgets
  • user-avatar
    Login

    Hourly Weather Haradok

    Today, 24 November, Friday

    Time Temperature Precipitation Wind Pressure Humidity
    00:00 -3°C° 0 mm 4 mps 751 mmHg 72%
    01:00 -4°C° 0 mm 4 mps 751 mmHg 72%
    02:00 -4°C° 0 mm 3 mps 751 mmHg 76%
    03:00 -4°C° 0 mm 3 mps 751 mmHg 74%
    04:00 -4°C° 0 mm 4 mps 751 mmHg 73%
    05:00 -3°C° 0 mm 4 mps 751 mmHg 71%
    06:00 -4°C° 0 mm 5 mps 751 mmHg 70%
    07:00 -4°C° 0 mm 5 mps 751 mmHg 68%
    08:00 -4°C° 0 mm 5 mps 750 mmHg 67%
    09:00 -4°C° 0 mm 5 mps 750 mmHg 65%
    10:00 -2°C° 0 mm 5 mps 750 mmHg 63%
    11:00 -2°C° 0 mm 5 mps 750 mmHg 61%
    12:00 -2°C° 0 mm 5 mps 750 mmHg 61%
    13:00 -1°C° 0 mm 5 mps 750 mmHg 62%
    14:00 -1°C° 0 mm 4 mps 750 mmHg 63%
    15:00 -2°C° 0 mm 4 mps 750 mmHg 66%
    16:00 -2°C° 0 mm 4 mps 750 mmHg 69%
    17:00 -3°C° 0 mm 4 mps 750 mmHg 72%
    18:00 -3°C° 0 mm 4 mps 750 mmHg 73%
    19:00 -3°C° 0 mm 4 mps 750 mmHg 73%
    20:00 -3°C° 0 mm 4 mps 750 mmHg 74%
    21:00 -3°C° 0 mm 4 mps 750 mmHg 75%
    22:00 -3°C° 0 mm 4 mps 750 mmHg 76%
    23:00 -3°C° 0 mm 4 mps 750 mmHg 77%

    Tomorrow, 25 November, Saturday

    Time Temperature Precipitation Wind Pressure Humidity
    00:00 -3°C° 0 mm 4 mps 749 mmHg 78%
    01:00 -3°C° 0 mm 4 mps 749 mmHg 79%
    02:00 -3°C° 0 mm 4 mps 749 mmHg 80%
    03:00 -3°C° 0 mm 4 mps 749 mmHg 83%
    04:00 -3°C° 0 mm 4 mps 748 mmHg 85%
    05:00 -3°C° 0 mm 4 mps 748 mmHg 87%
    06:00 -3°C° 0 mm 4 mps 748 mmHg 89%
    07:00 -2°C° 0 mm 4 mps 748 mmHg 90%
    08:00 -2°C° 0 mm 4 mps 748 mmHg 91%
    09:00 -1°C° 0 mm 3 mps 748 mmHg 92%
    10:00 0°C° 0 mm 3 mps 748 mmHg 92%
    11:00 0°C° 0 mm 3 mps 748 mmHg 93%
    12:00 0°C° 0 mm 3 mps 748 mmHg 93%
    13:00 +1°C° 0 mm 2 mps 748 mmHg 94%
    14:00 +2°C° 0 mm 2 mps 748 mmHg 94%
    15:00 +1°C° 0 mm 2 mps 748 mmHg 95%
    16:00 +1°C° 0 mm 2 mps 748 mmHg 96%
    17:00 +1°C° 0 mm 2 mps 748 mmHg 96%
    18:00 0°C° 0 mm 3 mps 748 mmHg 96%
    19:00 0°C° 0 mm 3 mps 748 mmHg 96%
    20:00 0°C° 0 mm 3 mps 748 mmHg 96%
    21:00 -1°C° 0 mm 4 mps 748 mmHg 96%
    22:00 -1°C° 0 mm 4 mps 747 mmHg 95%
    23:00 -1°C° 0 mm 4 mps 747 mmHg 95%

    Day after tomorrow, 26 November, Sunday

    Time Temperature Precipitation Wind Pressure Humidity
    00:00 -1°C° 0 mm 5 mps 747 mmHg 95%
    01:00 -1°C° 0 mm 5 mps 747 mmHg 94%
    02:00 -1°C° 0 mm 5 mps 747 mmHg 94%
    03:00 -1°C° 0 mm 6 mps 746 mmHg 94%
    04:00 -1°C° 0 mm 6 mps 746 mmHg 93%
    05:00 -1°C° 0 mm 6 mps 746 mmHg 93%
    06:00 -1°C° 0 mm 6 mps 746 mmHg 92%
    07:00 +1°C° 0 mm 6 mps 746 mmHg 91%
    08:00 +1°C° 0 mm 6 mps 746 mmHg 90%
    09:00 +1°C° 0.1 mm 6 mps 746 mmHg 90%
    10:00 +1°C° 0.1 mm 5 mps 746 mmHg 89%
    11:00 +2°C° 0.1 mm 5 mps 746 mmHg 89%
    12:00 +1°C° 0.4 mm 5 mps 746 mmHg 90%
    13:00 +1°C° 0.4 mm 4 mps 746 mmHg 91%
    14:00 +1°C° 0.4 mm 4 mps 747 mmHg 92%
    15:00 +2°C° 0.4 mm 3 mps 747 mmHg 93%
    16:00 +2°C° 0.4 mm 3 mps 747 mmHg 95%
    17:00 +3°C° 0.4 mm 2 mps 748 mmHg 96%
    18:00 +3°C° 0.5 mm 2 mps 748 mmHg 96%
    19:00 +3°C° 0.5 mm 1 mps 748 mmHg 96%
    20:00 +3°C° 0.5 mm 1 mps 748 mmHg 96%
    21:00 +3°C° 0.5 mm 1 mps 749 mmHg 96%
    22:00 +3°C° 0.5 mm 1 mps 749 mmHg 95%
    23:00 +3°C° 0.5 mm 1 mps 749 mmHg 95%

    27 November, Monday

    Time Temperature Precipitation Wind Pressure Humidity
    00:00 +3°C° 0.5 mm 1 mps 749 mmHg 95%
    01:00 +3°C° 0.5 mm 1 mps 749 mmHg 95%
    02:00 +3°C° 0.5 mm 1 mps 749 mmHg 95%
    03:00 +3°C° 0.4 mm 1 mps 749 mmHg 94%
    04:00 +3°C° 0.4 mm 1 mps 749 mmHg 94%
    05:00 +3°C° 0.4 mm 1 mps 749 mmHg 94%
    06:00 +3°C° 0.3 mm 1 mps 749 mmHg 93%
    07:00 +3°C° 0.3 mm 1 mps 749 mmHg 93%
    08:00 +3°C° 0.3 mm 1 mps 749 mmHg 92%
    09:00 +3°C° 0.3 mm 1 mps 749 mmHg 91%
    10:00 +3°C° 0.3 mm 1 mps 750 mmHg 89%
    11:00 +3°C° 0.3 mm 1 mps 750 mmHg 88%
    12:00 +3°C° 0.3 mm 1 mps 750 mmHg 88%
    13:00 +4°C° 0.3 mm 1 mps 750 mmHg 87%
    14:00 +4°C° 0.3 mm 1 mps 750 mmHg 87%
    15:00 +3°C° 0.2 mm 1 mps 750 mmHg 88%
    16:00 +3°C° 0.2 mm 1 mps 750 mmHg 89%
    17:00 +2°C° 0.2 mm 1 mps 750 mmHg 90%
    18:00 +2°C° 0.1 mm 1 mps 750 mmHg 91%
    19:00 +2°C° 0.1 mm 1 mps 750 mmHg 91%
    20:00 +2°C° 0.1 mm 1 mps 750 mmHg 92%
    21:00 +1°C° 0 mm 1 mps 751 mmHg 92%
    22:00 +1°C° 0 mm 1 mps 751 mmHg 93%
    23:00 -2°C° 0 mm 2 mps 751 mmHg 94%

    28 November, Tuesday

    Time Temperature Precipitation Wind Pressure Humidity
    00:00 0°C° 0 mm 1 mps 751 mmHg 94%
    01:00 -1°C° 0 mm 1 mps 751 mmHg 94%
    02:00 -1°C° 0 mm 1 mps 751 mmHg 94%
    03:00 -1°C° 0 mm 1 mps 751 mmHg 94%
    04:00 -1°C° 0 mm 1 mps 751 mmHg 94%
    05:00 -3°C° 0 mm 2 mps 751 mmHg 93%
    06:00 -3°C° 0 mm 2 mps 751 mmHg 93%
    07:00 -3°C° 0 mm 2 mps 751 mmHg 93%
    08:00 -3°C° 0 mm 2 mps 751 mmHg 93%
    09:00 -3°C° 0 mm 2 mps 751 mmHg 90%
    10:00 -2°C° 0 mm 2 mps 751 mmHg 87%
    11:00 -1°C° 0 mm 2 mps 752 mmHg 84%
    12:00 -1°C° 0 mm 2 mps 751 mmHg 84%
    13:00 -1°C° 0 mm 2 mps 751 mmHg 83%
    14:00 -1°C° 0 mm 2 mps 751 mmHg 83%
    15:00 -1°C° 0 mm 2 mps 751 mmHg 86%
    16:00 -2°C° 0 mm 2 mps 751 mmHg 89%
    17:00 -3°C° 0 mm 2 mps 751 mmHg 92%
    18:00 -3°C° 0 mm 2 mps 751 mmHg 92%
    19:00 -3°C° 0 mm 2 mps 751 mmHg 92%
    20:00 -4°C° 0 mm 3 mps 751 mmHg 91%
    21:00 -4°C° 0 mm 3 mps 751 mmHg 91%
    22:00 -4°C° 0 mm 3 mps 751 mmHg 92%
    23:00 -4°C° 0 mm 3 mps 751 mmHg 92%

    29 November, Wednesday

    Time Temperature Precipitation Wind Pressure Humidity
    00:00 -4°C° 0 mm 3 mps 751 mmHg 92%
    01:00 -4°C° 0 mm 3 mps 751 mmHg 92%
    02:00 -4°C° 0 mm 3 mps 750 mmHg 92%
    03:00 -4°C° 0 mm 3 mps 750 mmHg 91%
    04:00 -4°C° 0 mm 3 mps 750 mmHg 90%
    05:00 -4°C° 0 mm 3 mps 750 mmHg 88%
    06:00 -2°C° 0 mm 3 mps 750 mmHg 88%
    07:00 -2°C° 0 mm 3 mps 749 mmHg 87%
    08:00 -2°C° 0 mm 3 mps 749 mmHg 87%
    09:00 -2°C° 0 mm 3 mps 749 mmHg 87%
    10:00 -1°C° 0 mm 3 mps 749 mmHg 87%
    11:00 -2°C° 0 mm 4 mps 749 mmHg 88%
    12:00 -2°C° 0.1 mm 4 mps 748 mmHg 88%
    13:00 -2°C° 0.1 mm 4 mps 748 mmHg 88%
    14:00 -2°C° 0.1 mm 4 mps 747 mmHg 89%
    15:00 -2°C° 0.2 mm 4 mps 747 mmHg 89%
    16:00 -2°C° 0.2 mm 4 mps 747 mmHg 90%
    17:00 -2°C° 0.2 mm 5 mps 747 mmHg 90%
    18:00 -2°C° 0.5 mm 5 mps 746 mmHg 91%
    19:00 -2°C° 0.5 mm 5 mps 746 mmHg 91%
    20:00 -2°C° 0.5 mm 5 mps 746 mmHg 92%
    21:00 -4°C° 0.8 mm 5 mps 746 mmHg 92%
    22:00 -4°C° 0.8 mm 5 mps 746 mmHg 92%
    23:00 -4°C° 0.8 mm 5 mps 745 mmHg 92%
    Show more